Content
SEND FEEDBACK

Daily
Averages
Monthly
Summary
Thailand

BANGKOK, THAILAND


Home > Asia > Thailand
Elevation: 66 feet     Latitude: 13 44N     Longitude: 100 34E

WEATHER
 
SELECT A DAY
Number of Records: 244,879;   Date Range: 7/1/96 - 11/26/14
 
SHARE

PRINT THIS DATA

[ ← Previous Day ]
WEATHER ALMANAC - APRIL 8, 2013
[ Next Day → ]
[ °C ]   °F
Weather ElementAverageHighLow
Temperature89 °F96.8 °F (2:00 pm)82 °F (7:00 am)
Dewpoint71.2 °F76 °F (1:00 am)68 °F (11:30 am)
Humidity55.8 %70 % (5:30 am)33 % (1:00 pm)
Barometer29.70 in29.77 in (8:30 am)29.65 in (2:30 am)
Wind Speed5.2 mph9.2 mph (6:00 pm)
Weather ElementAverage
Visibility5.6 mi
Wind DirectionWSW (234.5 °)

Weather ElementTotal
Precipitation---
Cooling Degree Days24.4 (Base 65)
Growing Degree Days39.4 (Base 50)
Averaged from 51 records on April 8, 2013
WEATHER CONDITIONS BREAKOUT
WIND DIRECTION BREAKOUT
WEATHER BY HOUR - APRIL 8, 2013
[ °C ]   °F
Local TimeTemperatureDewpointHumidityBarometerVisibilityWind DirectionWind SpeedGust SpeedPrecipitationEventsConditions
12:30 AM87.8 °F75.2 °F66 %29.68 in5.0 miWest (260°)5.8 mphMostly Cloudy
1:00 AM88.0 °F76.0 °F59 %29.70 in5.0 miWest (270°)6.9 mphMist
1:00 AM87.8 °F75.2 °F66 %29.68 in5.0 miWest (270°)6.9 mphMostly Cloudy
1:30 AM86.0 °F71.6 °F62 %29.68 in5.0 miWNW (300°)4.6 mphMostly Cloudy
2:00 AM86.0 °F71.6 °F62 %29.68 in5.0 miWest (260°)4.6 mphMostly Cloudy
2:30 AM86.0 °F73.4 °F66 %29.65 in5.0 miWSW (240°)6.9 mphMostly Cloudy
3:00 AM86.0 °F71.6 °F62 %29.65 in5.0 miWest (260°)5.8 mphMostly Cloudy
3:30 AM84.2 °F71.6 °F66 %29.65 in5.0 miWest (260°)6.9 mphMostly Cloudy
4:00 AM84.2 °F71.6 °F66 %29.65 in5.6 miWSW (250°)4.6 mphMostly Cloudy
4:30 AM84.2 °F71.6 °F66 %29.65 in5.6 miWest (260°)5.8 mphMostly Cloudy
5:00 AM84.2 °F71.6 °F66 %29.68 in5.6 miWest (260°)6.9 mphMostly Cloudy
5:30 AM82.4 °F71.6 °F70 %29.68 in5.6 miWSW (240°)3.5 mphMostly Cloudy
6:00 AM82.4 °F71.6 °F70 %29.68 in5.6 miSSW (210°)3.5 mphMostly Cloudy
6:30 AM82.4 °F71.6 °F70 %29.71 in5.0 miSSW (210°)4.6 mphMostly Cloudy
7:00 AM82.0 °F71.0 °F60 %29.73 in4.0 miSW (220°)4.6 mphMist
7:00 AM82.4 °F71.6 °F70 %29.71 in4.3 miSW (220°)4.6 mphMostly Cloudy
7:30 AM82.4 °F69.8 °F66 %29.74 in4.3 miSW (230°)3.5 mphMostly Cloudy
8:00 AM82.4 °F69.8 °F66 %29.74 in5.0 miWSW (240°)3.5 mphMostly Cloudy
8:30 AM84.2 °F69.8 °F62 %29.77 in5.6 miNW (320°)6.9 mphMostly Cloudy
9:00 AM86.0 °F71.6 °F62 %29.77 in6.2 miNW (320°)5.8 mphMostly Cloudy
9:30 AM87.8 °F71.6 °F58 %29.77 in6.2 miNW (320°)5.8 mphMostly Cloudy
10:00 AM87.8 °F71.6 °F58 %29.77 in6.2 miNW (320°)5.8 mphMostly Cloudy
10:30 AM89.6 °F71.6 °F55 %29.77 in6.2 miWest (270°)4.6 mphMostly Cloudy
11:00 AM89.6 °F71.6 °F55 %29.77 in6.2 miNW (320°)4.6 mphMostly Cloudy
11:30 AM91.4 °F68.0 °F46 %29.77 in6.2 miNorth (350°)4.6 mphMostly Cloudy
12:00 PM93.2 °F68.0 °F44 %29.74 in6.2 miWSW (250°)3.5 mphMostly Cloudy
12:30 PM95.0 °F69.8 °F44 %29.74 in6.2 miNW (320°)5.8 mphMostly Cloudy
1:00 PM95.0 °F69.0 °F33 %29.73 in6.0 miNW (320°)3.5 mphClear
1:00 PM95.0 °F69.8 °F44 %29.71 in6.2 miNW (320°)3.5 mphMostly Cloudy
1:30 PM95.0 °F69.8 °F44 %29.71 in6.2 miWSW (240°)3.5 mphMostly Cloudy
2:00 PM96.8 °F68.0 °F39 %29.68 in6.2 miSSW (200°)4.6 mphMostly Cloudy
2:30 PM96.8 °F68.0 °F39 %29.68 in6.2 miWSW (250°)4.6 mphMostly Cloudy
3:00 PM96.8 °F68.0 °F39 %29.65 in6.2 miWSW (250°)5.8 mphMostly Cloudy
3:30 PM96.8 °F68.0 °F39 %29.65 in6.2 miSouth (180°)6.9 mphMostly Cloudy
4:00 PM96.8 °F71.6 °F44 %29.65 in6.2 miSouth (180°)6.9 mphMostly Cloudy
4:30 PM95.0 °F71.6 °F47 %29.65 in6.2 miSouth (180°)6.9 mphMostly Cloudy
5:00 PM95.0 °F71.6 °F47 %29.65 in6.2 miSouth (180°)5.8 mphMostly Cloudy
5:30 PM95.0 °F71.6 °F47 %29.65 in6.2 miSouth (180°)5.8 mphMostly Cloudy
6:00 PM93.2 °F69.8 °F46 %29.65 in6.2 miSSE (150°)9.2 mphMostly Cloudy
6:30 PM91.4 °F69.8 °F49 %29.68 in6.2 miSSE (150°)5.8 mphMostly Cloudy
7:00 PM91.0 °F72.0 °F44 %29.69 in6.0 miSSE (150°)3.5 mphHaze
7:00 PM91.4 °F69.8 °F49 %29.68 in5.6 miSSE (150°)3.5 mphMostly Cloudy
7:30 PM89.6 °F71.6 °F55 %29.68 in5.6 miSSE (150°)3.5 mphMostly Cloudy
8:00 PM89.6 °F71.6 °F55 %29.68 in5.6 miSSE (150°)3.5 mphMostly Cloudy
8:30 PM89.6 °F71.6 °F55 %29.71 in5.6 miSSE (150°)3.5 mphMostly Cloudy
9:00 PM87.8 °F71.6 °F58 %29.71 in5.6 miSouth (180°)3.5 mphMostly Cloudy
9:30 PM87.8 °F71.6 °F58 %29.74 in5.6 miSSW (200°)6.9 mphMostly Cloudy
10:00 PM87.8 °F73.4 °F62 %29.74 in5.0 miSSW (200°)6.9 mphMostly Cloudy
10:30 PM87.8 °F73.4 °F62 %29.74 in5.0 miSSW (200°)6.9 mphMostly Cloudy
11:00 PM87.8 °F73.4 °F62 %29.74 in5.0 miSSW (200°)5.8 mphMostly Cloudy
11:30 PM86.0 °F73.4 °F66 %29.74 in5.0 miSSW (200°)5.8 mphMostly Cloudy
Hourly data recorded from VTBD, located miles away from Bangkok, Thailand







STORIES FROM OUR PARTNERS